{"data":{"norad_id":48243,"intl_designator":"2021-031AK","name":"ONEWEB-0208","alt_names":[],"object_type":"PAYLOAD","status":"ACTIVE","operator":null,"country":"UK","launch_date":"2021-04-25","launch_site_code":"VOSTO","launch_vehicle":null,"mission":null,"orbit_class":"UNKNOWN","rcs_meters":null,"size_class":null,"mass_kg":null,"dimensions":null,"purposes":["comms"],"wikipedia_slug":null,"has_3d_model":false,"image_url":null,"decayed_at":null,"tle_current":{"epoch":"2026-05-25T04:08:14.840736Z","epoch_age_seconds":74294,"freshness":"FRESH","line1":"1 48243U 21031AK  26145.17239399  .00000194  00000+0  48858-3 0  9998","line2":"2 48243  87.8944 294.2950 0001489 103.6109 256.5187 13.14501483245281","mean_motion":13.14501483,"eccentricity":0.0001489,"inclination_deg":87.8944,"raan_deg":294.295,"arg_perigee_deg":103.6109,"mean_anomaly_deg":256.5187,"bstar":0.00048858,"rev_number":24528,"period_min":109.54723281967,"perigee_km":1204.6661726673,"apogee_km":1206.924667742,"semimajor_km":7583.9324202047,"source":"CELESTRAK","updated_at":"2026-05-25T13:38:22.440513Z"}}}